| time (UTC) | temp F | wind direction | speed MPH | gust MPH | rain 1hr in | rain 24hr in | rain mn in | humidity % | barometer mb |
| 20260831190058 | 96 | 222 | 5.0 | 12.0 | 0.00 | 0.00 | 0.00 | 45 | 1010.5 |
| 20260831184556 | 96 | 243 | 5.0 | 13.0 | 0.00 | 0.00 | 0.00 | 45 | 1010.6 |
| 20260831183059 | 96 | 236 | 6.0 | 14.0 | 0.00 | 0.00 | 0.00 | 43 | 1010.7 |
| 20260831181649 | 95 | 248 | 6.0 | 17.0 | 0.00 | 0.00 | 0.00 | 45 | 1010.9 |
| 20260831180045 | 95 | 288 | 6.0 | 14.0 | 0.00 | 0.00 | 0.00 | 47 | 1011.2 |
| 20260831174540 | 94 | 267 | 5.0 | 11.0 | 0.00 | 0.00 | 0.00 | 47 | 1011.3 |
| 20260831173038 | 94 | 238 | 7.0 | 15.0 | 0.00 | 0.00 | 0.00 | 46 | 1011.3 |
| 20260831171537 | 94 | 284 | 4.0 | 11.0 | 0.00 | 0.00 | 0.00 | 47 | 1011.5 |
| 20260831170036 | 93 | 219 | 6.0 | 13.0 | 0.00 | 0.00 | 0.00 | 47 | 1011.7 |
| 20260831164537 | 92 | 236 | 5.0 | 12.0 | 0.00 | 0.00 | 0.00 | 48 | 1011.8 |
| 20260831163028 | 91 | 255 | 6.0 | 12.0 | 0.00 | 0.00 | 0.00 | 49 | 1011.9 |
| 20260831161535 | 90 | 272 | 6.0 | 13.0 | 0.00 | 0.00 | 0.00 | 52 | 1011.9 |
| 20260831160020 | 89 | 234 | 6.0 | 12.0 | 0.00 | 0.00 | 0.00 | 54 | 1011.9 |
| 20260831154516 | 88 | 257 | 5.0 | 13.0 | 0.00 | 0.00 | 0.00 | 55 | 1012.0 |
| 20260831153013 | 86 | 232 | 4.0 | 13.0 | 0.00 | 0.00 | 0.00 | 59 | 1012.0 |
| 20260831151509 | 84 | 307 | 6.0 | 15.0 | 0.00 | 0.00 | 0.00 | 60 | 1012.0 |
| 20260831150005 | 82 | 254 | 4.0 | 10.0 | 0.00 | 0.00 | 0.00 | 64 | 1011.8 |
| 20260831144501 | 81 | 249 | 4.0 | 11.0 | 0.00 | 0.00 | 0.00 | 65 | 1011.8 |
| 20260831143059 | 80 | 200 | 3.0 | 10.0 | 0.00 | 0.00 | 0.00 | 66 | 1011.8 |
| 20260831141555 | 79 | 263 | 4.0 | 11.0 | 0.00 | 0.00 | 0.00 | 68 | 1011.8 |
| 20260831140054 | 77 | 309 | 3.0 | 10.0 | 0.00 | 0.00 | 0.00 | 72 | 1012.0 |
| 20260831134558 | 76 | 188 | 2.0 | 10.0 | 0.00 | 0.00 | 0.00 | 76 | 1012.0 |
| 20260831133046 | 74 | 256 | 1.0 | 5.0 | 0.00 | 0.00 | 0.00 | 80 | 1011.8 |
| 20260831131556 | 73 | 221 | 1.0 | 5.0 | 0.00 | 0.00 | 0.00 | 79 | 1011.7 |
| 20260831130046 | 72 | 234 | 1.0 | 5.0 | 0.00 | 0.00 | 0.00 | 79 | 1011.7 |
| 20260831124541 | 72 | 240 | 0.0 | 3.0 | 0.00 | 0.00 | 0.00 | 78 | 1011.5 |
| 20260831123037 | 72 | 241 | 0.0 | 1.0 | 0.00 | 0.00 | 0.00 | 77 | 1011.4 |
| 20260831121531 | 72 | 241 | 0.0 | 2.0 | 0.00 | 0.00 | 0.00 | 77 | 1011.4 |
| 20260831120028 | 72 | 241 | 0.0 | 3.0 | 0.00 | 0.00 | 0.00 | 77 | 1011.2 |
| 20260831114527 | 72 | 241 | 1.0 | 4.0 | 0.00 | 0.00 | 0.00 | 77 | 1011.1 |
| 20260831113024 | 72 | 240 | 0.0 | 5.0 | 0.00 | 0.00 | 0.00 | 76 | 1010.6 |
| 20260831111533 | 72 | 216 | 0.0 | 3.0 | 0.00 | 0.00 | 0.00 | 76 | 1010.6 |
| 20260831110022 | 73 | 217 | 0.0 | 3.0 | 0.00 | 0.00 | 0.00 | 75 | 1010.6 |
| 20260831104525 | 73 | 217 | 0.0 | 2.0 | 0.00 | 0.00 | 0.00 | 74 | 1010.5 |
| 20260831103020 | 73 | 217 | 0.0 | 0.0 | 0.00 | 0.00 | 0.00 | 74 | 1010.5 |
| 20260831101516 | 73 | 217 | 0.0 | 0.0 | 0.00 | 0.00 | 0.00 | 73 | 1010.5 |
| 20260831100017 | 74 | 217 | 0.0 | 0.0 | 0.00 | 0.00 | 0.00 | 73 | 1010.4 |
| 20260831094530 | 74 | 217 | 0.0 | 0.0 | 0.00 | 0.00 | 0.00 | 73 | 1010.4 |
| 20260831093033 | 74 | 217 | 0.0 | 2.0 | 0.00 | 0.00 | 0.00 | 72 | 1010.4 |
| 20260831091510 | 75 | 217 | 0.0 | 2.0 | 0.00 | 0.00 | 0.00 | 72 | 1010.3 |
| 20260831090008 | 0 | 0.0 | 0.0 | 0.00 | 0.00 | 0.00 | 1010.3 | ||
| 20260831084510 | 0 | 0.0 | 0.0 | 0.00 | 0.00 | 0.00 | 1010.3 | ||
| 20260831083110 | 0 | 0.0 | 0.0 | 0.00 | 0.00 | 0.00 | 1010.3 | ||
| 20260831081600 | 0 | 0.0 | 0.0 | 0.00 | 0.00 | 0.00 | 1010.4 | ||
| 20260831080123 | 0 | 0.0 | 0.0 | 0.00 | 0.00 | 0.00 | 1010.1 | ||
| 20260831074547 | 0 | 0.0 | 0.0 | 0.00 | 0.00 | 0.00 | 1009.9 | ||
| 20260831073042 | 0 | 0.0 | 0.0 | 0.00 | 0.00 | 0.00 | 1009.9 | ||
| 20260831071544 | 0 | 0.0 | 0.0 | 0.00 | 0.00 | 0.00 | 1009.9 | ||
| 20260831070035 | 0 | 0.0 | 0.0 | 0.00 | 0.00 | 0.00 | 1009.8 | ||
| 20260831064529 | 0 | 0.0 | 0.0 | 0.00 | 0.00 | 0.00 | 1009.8 | ||
| 20260831063025 | 0 | 0.0 | 0.0 | 0.00 | 0.00 | 0.00 | 1009.7 | ||
| 20260831061520 | 0 | 0.0 | 0.0 | 0.00 | 0.00 | 0.00 | 1009.8 | ||
| 20260831060016 | 0 | 0.0 | 0.0 | 0.00 | 0.00 | 0.00 | 1009.9 | ||
| 20260831054511 | 0 | 0.0 | 0.0 | 0.00 | 0.00 | 0.00 | 1010.0 | ||
| 20260831053007 | 0 | 0.0 | 0.0 | 0.00 | 0.00 | 0.00 | 1009.9 | ||
| 20260831051510 | 0 | 0.0 | 0.0 | 0.00 | 0.00 | 0.00 | 1009.9 | ||
| 20260831050059 | 0 | 0.0 | 0.0 | 0.00 | 0.00 | 0.00 | 1009.9 | ||
| 20260831050001 | 0 | 0.0 | 0.0 | 0.00 | 0.00 | 0.00 | 1009.8 | ||
| 20260831044639 | 0 | 0.0 | 0.0 | 0.00 | 0.00 | 0.00 | 1009.9 | ||
| 20260831043049 | 0 | 0.0 | 0.0 | 0.00 | 0.00 | 0.00 | 1010.1 | ||
| 20260831041550 | 0 | 0.0 | 0.0 | 0.00 | 0.00 | 0.00 | 1010.0 | ||
| 20260831040042 | 0 | 0.0 | 0.0 | 0.00 | 0.00 | 0.00 | 1010.1 | ||
| 20260831034536 | 0 | 0.0 | 0.0 | 0.00 | 0.00 | 0.00 | 1010.0 | ||
| 20260831033042 | 0 | 0.0 | 0.0 | 0.00 | 0.00 | 0.00 | 1009.9 | ||
| 20260831031535 | 0 | 0.0 | 0.0 | 0.00 | 0.00 | 0.00 | 1009.8 | ||
| 20260831030024 | 0 | 0.0 | 0.0 | 0.00 | 0.00 | 0.00 | 1009.7 | ||
| 20260831024519 | 0 | 0.0 | 0.0 | 0.00 | 0.00 | 0.00 | 1009.6 | ||
| 20260831023016 | 0 | 0.0 | 0.0 | 0.00 | 0.00 | 0.00 | 1009.6 | ||
| 20260831021516 | 0 | 0.0 | 0.0 | 0.00 | 0.00 | 0.00 | 1009.4 | ||
| 20260831020007 | 0 | 0.0 | 0.0 | 0.00 | 0.00 | 0.00 | 1009.2 | ||
| 20260831014502 | 0 | 0.0 | 0.0 | 0.00 | 0.00 | 0.00 | 1008.9 | ||
| 20260831013058 | 0 | 0.0 | 0.0 | 0.00 | 0.00 | 0.00 | 1008.5 | ||
| 20260831011557 | 0 | 0.0 | 0.0 | 0.00 | 0.00 | 0.00 | 1008.5 | ||
| 20260831004551 | 91 | 198 | 0.0 | 5.0 | 0.00 | 0.00 | 0.00 | 50 | 1008.3 |
| 20260831003052 | 92 | 136 | 1.0 | 5.0 | 0.00 | 0.00 | 0.00 | 49 | 1008.3 |
| 20260831001553 | 93 | 154 | 0.0 | 4.0 | 0.00 | 0.00 | 0.00 | 48 | 1008.3 |
| 20260831000058 | 95 | 164 | 0.0 | 5.0 | 0.00 | 0.00 | 0.00 | 47 | 1008.3 |
| 20260830234550 | 95 | 12 | 1.0 | 6.0 | 0.00 | 0.00 | 0.00 | 46 | 1008.2 |
| 20260830233047 | 96 | 110 | 1.0 | 6.0 | 0.00 | 0.00 | 0.00 | 45 | 1008.3 |
| 20260830231546 | 97 | 207 | 1.0 | 5.0 | 0.00 | 0.00 | 0.00 | 44 | 1008.4 |
| 20260830230046 | 98 | 229 | 1.0 | 9.0 | 0.00 | 0.00 | 0.00 | 41 | 1008.5 |
| 20260830224548 | 98 | 182 | 2.0 | 9.0 | 0.00 | 0.00 | 0.00 | 41 | 1008.5 |
| 20260830223044 | 99 | 244 | 1.0 | 7.0 | 0.00 | 0.00 | 0.00 | 42 | 1008.6 |
| 20260830221542 | 99 | 131 | 2.0 | 8.0 | 0.00 | 0.00 | 0.00 | 41 | 1008.6 |
| 20260830220042 | 100 | 226 | 2.0 | 7.0 | 0.00 | 0.00 | 0.00 | 41 | 1008.6 |
| 20260830214540 | 100 | 165 | 2.0 | 8.0 | 0.00 | 0.00 | 0.00 | 42 | 1008.8 |
| 20260830213052 | 100 | 133 | 1.0 | 6.0 | 0.00 | 0.00 | 0.00 | 43 | 1009.0 |
| 20260830211536 | 100 | 277 | 3.0 | 11.0 | 0.00 | 0.00 | 0.00 | 41 | 1009.0 |
| 20260830210035 | 99 | 278 | 2.0 | 7.0 | 0.00 | 0.00 | 0.00 | 41 | 1009.2 |
| 20260830204539 | 0 | 0.0 | 0.0 | 0.00 | 0.00 | 0.00 | 1009.4 | ||
| 20260830203028 | 0 | 0.0 | 0.0 | 0.00 | 0.00 | 0.00 | 1009.6 | ||
| 20260830201521 | 0 | 0.0 | 0.0 | 0.00 | 0.00 | 0.00 | 1009.8 | ||
| 20260830200017 | 0 | 0.0 | 0.0 | 0.00 | 0.00 | 0.00 | 1009.9 | ||
| 20260830194512 | 0 | 0.0 | 0.0 | 0.00 | 0.00 | 0.00 | 1010.1 | ||
| 20260830193019 | 0 | 0.0 | 0.0 | 0.00 | 0.00 | 0.00 | 1010.3 |